This demonstration page uses our WeatherBlox Daily Observations layout. Learn more.

Left ArrowRight Arrow

36.19886, -115.1175

Hourly Observations for September 2, 2021

Temp ( °F °C ) Dew Point ( °F °C ) Humidity (%) Winds ( mph kmh ) Pressure ( in mb ) Visibility ( mi km ) Precip ( " mm )
12:53 am 00:53 Clear 81 27.2 62 16.7 53 53 E 8 13 29.77 1008 10 16 0.00 0.00
1:53 am 01:53 Clear 79 26.1 62 16.7 56 56 E 8 13 29.77 1008 10 16 0.00 0.00
2:53 am 02:53 Clear 79 26.1 62 16.7 56 56 ENE 8 13 29.78 1008 10 16 0.00 0.00
3:53 am 03:53 Clear 78 25.6 62 16.7 58 58 ENE 7 11 29.78 1009 10 16 0.00 0.00
4:53 am 04:53 Clear 78 25.6 62 16.7 58 58 ENE 7 11 29.79 1009 10 16 0.00 0.00
5:53 am 05:53 Clear 76 24.4 62 16.7 62 62 ENE 7 11 29.81 1010 10 16 0.00 0.00
6:53 am 06:53 Sunny 77 25 63 17.2 62 62 ENE 6 9 29.83 1010 10 16 0.00 0.00
7:53 am 07:53 Sunny 80 26.7 61 16.1 52 52 E 9 15 29.85 1011 10 16 0.00 0.00
8:53 am 08:53 Sunny 84 28.9 58 14.4 41 41 SE 8 13 29.85 1011 10 16 0.00 0.00
9:53 am 09:53 Sunny 87 30.6 59 15 39 39 ESE 12 19 29.86 1011 10 16 0.00 0.00
10:53 am 10:53 Sunny 90 32.2 52 11.1 27 27 SSE 12 19 29.85 1011 10 16 0.00 0.00
11:53 am 11:53 Sunny 94 34.4 35 1.7 13 13 SSE 13 20 29.83 1010 10 16 0.00 0.00
12:53 pm 12:53 Sunny 98 36.7 28 -2.2 8 8 S 22 35 29.80 1009 10 16 0.00 0.00
1:53 pm 13:53 Sunny 98 36.7 32 0 10 10 SSW 17 28 29.80 1009 10 16 0.00 0.00
2:53 pm 14:53 Sunny 99 37.2 27 -2.8 8 8 S 12 19 29.77 1008 10 16 0.00 0.00
3:53 pm 15:53 Sunny 100 37.8 25 -3.9 7 7 SSW 17 28 29.76 1008 10 16 0.00 0.00
4:53 pm 16:53 Sunny 98 36.7 22 -5.6 6 6 SW 13 20 29.75 1008 10 16 0.00 0.00
5:53 pm 17:53 Sunny 97 36.1 22 -5.6 7 7 WSW 17 28 29.75 1008 10 16 0.00 0.00
6:53 pm 18:53 Sunny 95 35 20 -6.7 6 6 SSW 13 20 29.75 1008 10 16 0.00 0.00
7:53 pm 19:53 Clear 93 33.9 25 -3.9 8 8 S 10 17 29.77 1008 10 16 0.00 0.00
8:53 pm 20:53 Clear 91 32.8 27 -2.8 10 10 S 7 11 29.78 1009 10 16 0.00 0.00
9:53 pm 21:53 Clear 88 31.1 28 -2.2 11 11 SSW 7 11 29.80 1009 10 16 0.00 0.00
10:53 pm 22:53 Clear 87 30.6 28 -2.2 12 12 S 12 19 29.80 1009 10 16 0.00 0.00
11:53 pm 23:53 Clear 85 29.4 28 -2.2 13 13 SSW 8 13 29.80 1009 10 16 0.00 0.00

Powered by AerisWeather